Location: Borea
(45.6167°N, 23.0167°E)
Time: 00:54:32
(UTC+00:00)

Cosmos 676 Rocket - Visible Passes

Search period start: 11 October 2024 00:00
Search period end: 21 October 2024 00:00
Orbit: 751 x 781 km, 74.0° (Epoch: 10 October)

Date Brightness Start Highest point End Pass type
(mag) Time Alt. Az. Time Alt. Az. Time Alt. Az.
17 Oct 6.7 03:49:59 10° NNE 03:52:47 14° NE 03:55:32 10° ENE visible
19 Oct 6.0 04:15:30 10° N 04:20:11 30° ENE 04:24:51 10° ESE visible
20 Oct 6.5 03:38:20 10° N 03:42:14 20° NE 03:46:06 10° E visible
